Location: Bagnolo San Vito
(45.0833°N, 10.8833°E)
Time: 13:47:17
(UTC+00:00)

Resurs 01 Rocket - Pass Details

Date: 03 March 2021
Orbit: 635 x 643 km, 98.0° (Epoch: 14 April)

Event Time Altitude Azimuth Distance (km) Brightness Sun altitude
Exits shadow 19:12:41 24° 26° (NNE) 1,323 3.1 -22.9°
Drops below altitude 10° 19:14:52 10° 5° (N) 2,033 4.3 -23.3°
Sets 19:17:13 0° 356° (N) 2,947 5.3 -23.7°
